Weather History for Craig, CO

Change the Weather History Date:

Saturday, June 23, 2012

  Actual Average Record
Temperature  
Mean Temperature 67 °F 62 °F  
Max Temperature 95 °F 82 °F 95 °F (2007)
Min Temperature 39 °F 42 °F 37 °F (1998)
Degree Days  
Heating Degree Days 0 4  
Month to date heating degree days 66 156  
Since 1 June heating degree days 66 156  
Since 1 July heating degree days 7420 8615  
Cooling Degree Days 2 0  
Month to date cooling degree days 15 0  
Year to date cooling degree days 15 0  
Since 1 June cooling degree days 15 0  
Growing Degree Days 17 (Base 50)    
Moisture  
Dew Point 25 °F    
Average Humidity 36    
Maximum Humidity 65    
Minimum Humidity 6    
Precipitation  
Precipitation 0.00 in 0.04 in 0.03 in (2005)
Month to date precipitation 0.11 1.10  
Year to date precipitation 1.54 7.29  
Sea Level Pressure  
Sea Level Pressure 29.75 in    
Wind  
Wind Speed 9 mph (SW)    
Max Wind Speed 32 mph    
Max Gust Speed 46 mph    
Visibility 10 miles    
Events      
T = Trace of Precipitation, MM = Missing Value Source: NWS Daily Summary

Daily Weather History Graph

Daily Weather History Graph

Search for Another Location

Airport:

Trip Planner

Search our weather history database for the weather conditions in past years. The results will help you decide how hot, cold, wet, or windy it might be!

Date:

Astronomy

Jun. 23, 2012 Rise Set
Actual Time 5:40 AM MDT 8:44 PM MDT
Civil Twilight 5:07 AM MDT 9:17 PM MDT
Nautical Twilight 4:24 AM MDT 10:00 PM MDT
Astronomical Twilight 3:34 AM MDT 10:49 PM MDT
Moon 9:46 AM MDT 11:13 PM MDT
Length of Visible Light 16h 10m
Length of Day
15h 04m
Waxing Crescent, 16% of the Moon is Illuminated
Jun 23
Waxing Crescent
Jun 26
First Quarter
Jul 3
Full
Jul 10
Last Quarter
Jul 18
New

Hourly Weather History & Observations

Time (MDT) Temp. Dew Point Humidity Pressure Visibility Wind Dir Wind Speed Gust Speed Precip Events Conditions
12:53 AM 51.1 °F 30.0 °F 44% 29.70 in 10.0 mi SE 3.5 mph - N/A   Clear
1:53 AM 53.1 °F 27.0 °F 37% 29.70 in 10.0 mi Calm Calm - N/A   Clear
2:53 AM 48.9 °F 28.0 °F 44% 29.70 in 10.0 mi Calm Calm - N/A   Clear
3:53 AM 44.1 °F 33.1 °F 65% 29.73 in 10.0 mi Calm Calm - N/A   Clear
4:53 AM 39.9 °F 28.9 °F 65% 29.75 in 10.0 mi Calm Calm - N/A   Clear
5:53 AM 39.0 °F 27.0 °F 62% 29.78 in 10.0 mi Calm Calm - N/A   Clear
6:53 AM 48.9 °F 30.9 °F 50% 29.78 in 10.0 mi Calm Calm - N/A   Clear
7:53 AM 57.0 °F 33.1 °F 40% 29.77 in 10.0 mi Calm Calm - N/A   Clear
8:53 AM 68.0 °F 36.0 °F 31% 29.77 in 10.0 mi Calm Calm - N/A   Clear
9:53 AM 84.0 °F 19.9 °F 9% 29.72 in 10.0 mi SW 19.6 mph 31.1 mph N/A   Clear
10:53 AM 87.1 °F 17.1 °F 8% 29.73 in 10.0 mi SW 20.7 mph 28.8 mph N/A   Clear
11:53 AM 89.1 °F 16.0 °F 7% 29.73 in 10.0 mi SW 21.9 mph 34.5 mph N/A   Clear
12:53 PM 91.0 °F 14.0 °F 6% 29.74 in 10.0 mi SW 23.0 mph 40.3 mph N/A   Clear
1:53 PM 93.0 °F 15.1 °F 6% 29.72 in 10.0 mi SW 20.7 mph 40.3 mph N/A   Clear
2:53 PM 93.0 °F 21.0 °F 7% 29.73 in 10.0 mi SW 21.9 mph 29.9 mph N/A   Clear
3:53 PM 93.9 °F 19.9 °F 7% 29.74 in 10.0 mi SW 21.9 mph 31.1 mph N/A   Clear
4:53 PM 93.9 °F 17.1 °F 6% 29.75 in 10.0 mi WSW 16.1 mph 32.2 mph N/A   Clear
5:53 PM 93.9 °F 15.1 °F 6% 29.73 in 10.0 mi SW 27.6 mph 42.6 mph N/A   Clear
6:53 PM 91.0 °F 17.1 °F 7% 29.73 in 10.0 mi SW 11.5 mph 23.0 mph N/A   Clear
7:53 PM 87.1 °F 18.0 °F 8% 29.73 in 10.0 mi WSW 10.4 mph - N/A   Clear
8:53 PM 72.0 °F 24.1 °F 17% 29.77 in 10.0 mi SSW 6.9 mph - N/A   Clear
9:53 PM 66.0 °F 35.1 °F 32% 29.77 in 10.0 mi Calm Calm - N/A   Clear
10:53 PM 64.0 °F 32.0 °F 30% 29.80 in 10.0 mi Calm Calm - N/A   Clear
11:53 PM 62.1 °F 34.0 °F 35% 29.81 in 10.0 mi ENE 3.5 mph - N/A   Clear